Weather Roundup
Issued by NWS

Home | Current Version | Previous Version | Graphics & Text | Print | Product List | Glossary Off
Versions: 1 2 3 4 5 6 7 8 9 10 11 12 13 14 15 16 17 18 19 20 21 22 23 24 25 26 27 28 29 30 31 32 33 34 35 36 37 38 39 40 41 42 43 44 45 46 47 48 49 50

000
NZUS93 KARX 251359
HRRWXR

CURRENT HOURLY OBSERVATIONS ACROSS
MUCH OF THE UPPER MISSISSIPPI VALLEY
NATIONAL WEATHER SERVICE LA CROSSE WI
900 AM CDT SUN JUN 25 2017


...SOUTHEAST MINNESOTA...


CITY           SKY/WX    TMP DP  RH WIND       PRES   REMARKS
ROCHESTER      LGT RAIN  52  50  93 W15       30.15R
ROCHESTER/MAYO CLOUDY    54  47  78 W14G22    30.14S
WINONA         CLOUDY    55  50  82 W5        30.12R
AUSTIN         CLOUDY    52  46  82 NW12G18   30.17R
ALBERT LEA     CLOUDY    54  45  71 NW13G18   30.19R
DODGE CENTER   CLOUDY    54  46  76 W15       30.16R
PRESTON        CLOUDY    53  47  80 W14G20    30.15R
OWATONNA       DRIZZLE   52  48  87 W13       30.17R
FARIBAULT      CLOUDY    54  48  82 W12G17    30.17R
$$

...ELSEWHERE IN MINNESOTA...


CITY           SKY/WX    TMP DP  RH WIND       PRES   REMARKS
MINNEAPOLIS    CLOUDY    56  49  77 NW13      30.14R
INTNL FALLS    LGT RAIN  50  46  86 NW12      30.12R
DULUTH         CLOUDY    56  52  86 NW7       30.03S
RED WING       CLOUDY    57  46  67 NW10      30.11R
REDWOOD FALLS  SUNNY     57  42  57 NW13G29   30.23R
MANKATO        CLOUDY    54  45  71 NW20G25   30.19R
WORTHINGTON    SUNNY     56  43  61 NW20G25   30.28R
FAIRMONT       MOSUNNY   57  45  64 NW17G26   30.23R
$$

...SOUTHWEST WISCONSIN...


CITY           SKY/WX    TMP DP  RH WIND       PRES   REMARKS
LA CROSSE      CLOUDY    63  52  67 W13       30.11R
PRAIRIE DU CHI SUNNY     59  49  69 W10       30.14R
BOSCOBEL       MOSUNNY   61  51  70 W9        30.13R
LONE ROCK      NOT AVBL
PLATTEVILLE    SUNNY     58  52  83 W8        30.14R
FORT MC COY    CLOUDY    54  52  92 W5        30.11R
MAUSTON-NEW LI CLOUDY    57  51  80 W10       30.09R
VIROQUA        CLOUDY    54  51  90 W8        30.11S
WIS DELLS      PTSUNNY   58  50  75 W10G17    30.09R
$$

...ELSEWHERE IN WISCONSIN...


CITY           SKY/WX    TMP DP  RH WIND       PRES   REMARKS
MILWAUKEE      MOSUNNY   62  50  64 W10G21    30.06R
MADISON        MOSUNNY   59  51  75 NW8       30.09R
GREEN BAY      PTSUNNY   60  54  80 W10       30.01R
EAU CLAIRE     NOT AVBL
BLACK RVR FLS  CLOUDY    58  49  74 W12       30.09S
MEDFORD        CLOUDY    52  49  91 W9        30.05R
WAUSAU         PTSUNNY   57  51  80 NW9       30.03R
WIS RAPIDS     CLOUDY    54  49  83 W9        30.08R
MARSHFIELD     CLOUDY    53  49  86 W10       30.06R
RICE LAKE      CLOUDY    54  50  88 W8        30.09R
$$

...NORTHEAST IOWA...


CITY           SKY/WX    TMP DP  RH WIND       PRES   REMARKS
WATERLOO       PTSUNNY   59  47  64 NW14G28   30.18S
DUBUQUE        SUNNY     58  50  75 W14       30.16R
DECORAH        CLOUDY    55  48  76 W9G16     30.14R
MASON CITY     CLOUDY    55  46  71 NW17G26   30.22R
CHARLES CITY   CLOUDY    54  50  87 W9        30.19S
OELWEIN        MOSUNNY   57  50  77 NW17G24   30.18S
$$

...ELSEWHERE IN IOWA...


CITY           SKY/WX    TMP DP  RH WIND       PRES   REMARKS
DES MOINES     MOSUNNY   62  46  55 NW16      30.25S
IOWA CITY      MOSUNNY   62  49  62 NW10G18   30.21R
FORT DODGE     SUNNY     57  45  62 NW14G22   30.26R
MARSHALLTOWN   MOSUNNY   60  48  64 NW17      30.21S
CEDAR RAPIDS   SUNNY     60  50  69 NW16      30.18S
$$

...NORTHERN ILLINOIS...


CITY           SKY/WX    TMP DP  RH WIND       PRES   REMARKS
CHICAGO-OHARE  MOSUNNY   63  49  60 W12       30.10S
CHICAGO-MIDWAY MOSUNNY   65  48  54 W15       30.11R
MOLINE         MOSUNNY   65  49  56 W10       30.17S
ROCKFORD       MOSUNNY   63  51  65 W13       30.14R
PEORIA         SUNNY     66  49  54 W9        30.18R
$$

NOTE: "FAIR" INDICATES FEW OR NO CLOUDS BELOW 12,000 FEET WITH NO
SIGNIFICANT WEATHER AND/OR OBSTRUCTIONS TO VISIBILITY. WIND
SPEEDS ARE IN MILES-PER-HOUR.




USA.gov is the U.S. government's official web portal to all federal, state and local government web resources and services.